This demonstration page uses our WeatherBlox Daily Observations layout. Learn more.

Left ArrowRight Arrow

53.62937, 11.41316

Hourly Observations for January 23, 2018

Temp ( °F °C ) Dew Point ( °F °C ) Humidity (%) Winds ( mph kmh ) Pressure ( in mb ) Visibility ( mi km ) Precip ( " mm )
5:20 am 05:20 Mostly Cloudy with Freezing Fog 32 0 32 0 100 100 SSW 3 6 30.03 1017 1 1 N/A
5:50 am 05:50 Mostly Cloudy with Mist and Fog 32 0 32 0 100 100 VRB 1 2 30.06 1018 2 4 N/A
6:20 am 06:20 Cloudy with Mist and Fog 32 0 32 0 100 100 SSE 3 6 30.06 1018 3 5 N/A
6:50 am 06:50 Cloudy with Mist and Fog 32 0 32 0 100 100 SSE 3 6 30.06 1018 2 3 N/A
7:20 am 07:20 Cloudy with Mist and Fog 32 0 32 0 100 100 SE 3 6 30.09 1019 2 3 N/A
7:50 am 07:50 Cloudy with Mist and Fog 32 0 32 0 100 100 SSE 5 7 30.09 1019 2 4 N/A
8:20 am 08:20 Cloudy with Light Freezing Drizzle 32 0 32 0 100 100 SSE 5 7 30.09 1019 2 3 N/A
8:50 am 08:50 Cloudy with Light Snow 32 0 32 0 100 100 SSE 6 9 30.12 1020 2 4 N/A
9:20 am 09:20 Cloudy with Mist and Fog 32 0 32 0 100 100 SE 3 6 30.12 1020 3 5 N/A
9:50 am 09:50 Cloudy with Mist and Fog 32 0 32 0 100 100 ESE 5 7 30.12 1020 1 2 N/A
10:20 am 10:20 Cloudy with Mist and Fog 34 1 34 1 100 100 SE 5 7 30.15 1021 2 3 N/A
10:50 am 10:50 Cloudy with Mist and Fog 34 1 34 1 100 100 SSE 5 7 30.15 1021 2 3 N/A
11:20 am 11:20 Cloudy with Mist and Fog 34 1 34 1 100 100 SSE 5 7 30.15 1021 2 3 N/A
11:50 am 11:50 Cloudy with Mist and Fog 34 1 34 1 100 100 SE 7 11 30.15 1021 1 2 N/A
12:20 pm 12:20 Cloudy with Mist and Fog 36 2 36 2 100 100 SSE 7 11 30.12 1020 1 2 N/A
12:50 pm 12:50 Cloudy with Mist and Fog 36 2 36 2 100 100 SSE 6 9 30.15 1021 2 3 N/A
1:20 pm 13:20 Cloudy with Mist and Fog 36 2 36 2 100 100 SSE 7 11 30.12 1020 2 3 N/A
1:50 pm 13:50 Cloudy with Mist and Fog 37 3 37 3 100 100 SSE 6 9 30.12 1020 2 3 N/A
2:20 pm 14:20 Cloudy with Mist and Fog 37 3 37 3 100 100 SSE 8 13 30.12 1020 2 3 N/A
2:50 pm 14:50 Cloudy with Mist and Fog 37 3 37 3 100 100 S 7 11 30.12 1020 3 4 N/A
3:20 pm 15:20 Cloudy with Drizzle 39 4 37 3 93 93 S 7 11 30.12 1020 2 4 N/A
3:50 pm 15:50 Cloudy with Mist and Fog 39 4 39 4 100 100 SSE 8 13 30.12 1020 3 4 N/A
4:50 pm 16:50 Cloudy with Mist and Fog 41 5 39 4 93 93 SSE 10 17 30.09 1019 2 4 N/A
5:20 pm 17:20 Cloudy with Mist and Fog 41 5 39 4 93 93 SSE 10 17 30.09 1019 2 4 N/A
5:50 pm 17:50 Cloudy with Mist and Fog 41 5 39 4 93 93 SSE 10 17 30.09 1019 3 4 N/A

Powered by AerisWeather